Location: Oshawa
(43.9000°N, 78.8670°W)
Time: 13:25:31
(UTC-04:00)

SPOT 5 - Visible Passes

Search period start: 29 April 2017 00:00
Search period end: 09 May 2017 00:00
Orbit: 623 x 816 km, 98.4° (Epoch: 25 April)

Date Brightness Start Highest point End Pass type
(mag) Time Alt. Az. Time Alt. Az. Time Alt. Az.
29 Apr 4.3 21:09:19 11° ESE 21:12:21 20° ENE 21:15:37 10° NNE visible
29 Apr 3.4 22:48:34 35° SSW 22:50:08 49° W 22:54:35 10° NNW visible
30 Apr 3.0 21:57:54 28° SE 22:00:07 53° ENE 22:04:32 10° N visible
30 Apr 5.0 23:37:08 15° WSW 23:38:27 17° W 23:41:24 10° NW visible
01 May 4.4 21:07:13 10° ESE 21:10:24 19° ENE 21:13:30 10° NNE visible
01 May 3.3 22:46:27 34° SSW 22:48:09 51° W 22:52:34 10° NNW visible
02 May 3.0 21:55:47 26° SE 21:58:08 50° ENE 22:02:29 10° N visible
02 May 4.9 23:35:01 15° WSW 23:36:27 17° W 23:39:28 10° NW visible
03 May 4.4 21:05:25 10° ESE 21:08:26 17° ENE 21:11:22 10° NNE visible
03 May 3.3 22:44:21 33° SSW 22:46:09 53° W 22:50:34 10° NNW visible
04 May 3.1 21:53:41 24° SE 21:56:09 47° ENE 22:00:26 10° N visible
04 May 4.9 23:32:55 15° WSW 23:34:27 18° W 23:37:31 10° NW visible
05 May 4.5 21:03:37 10° ESE 21:06:28 17° ENE 21:09:14 10° NNE visible
05 May 3.2 22:42:15 32° SSW 22:44:10 56° W 22:48:32 10° NNW visible
06 May 3.1 21:51:35 22° SE 21:54:10 45° ENE 21:58:23 10° N visible
06 May 4.8 23:30:49 16° WSW 23:32:26 18° W 23:35:34 10° NW visible
07 May 4.5 21:01:50 10° E 21:04:29 16° ENE 21:07:06 10° NNE visible
07 May 3.1 22:40:09 31° SSW 22:42:10 58° WSW 22:46:32 10° NNW visible
08 May 3.2 21:49:28 20° SE 21:52:11 42° ENE 21:56:20 10° N visible
08 May 4.8 23:28:43 16° WSW 23:30:27 19° W 23:33:37 10° NW visible
